UPS6 OMDB-EDDK

Flight info

Callsign UPS6
Flight time N/A
Altitude 26000
Route SENPA N571 ALPOB L768 HFR/N0489F280 L768 VATIM L550 NOVPA N697 MENLI L677 CVO L617 TANSA/N0492F300 UL617 MIL UN134 KOR UL613 YNN UL611 TUMBO DCT OVVER DCT RODON DCT VAKSU DCT NERRA DCT VEKEN DCT MODSA DCT VEKIR DCT UMDAS T844 ASKIK/N0452F240 T840 GULKO GULKO1F
Aircraft MD11/H-SDE1E2E3FGHIJ2J3J4J5M1RWXY/LB1D1

Departure

Time N/A
Airport Dubai International Airport (OMDB)

Arrival

Time 2026-04-26 16:57
Airport Cologne Bonn Airport (EDDK)
Time Latitude Longitude Altitude Speed Heading
2026-04-26 15:40 44.94210 15.12236 38193 ft 452 kts 317°
2026-04-26 15:40 44.98930 15.06365 38199 ft 452 kts 317°
2026-04-26 15:41 45.03632 15.00504 38195 ft 451 kts 317°
2026-04-26 15:41 45.08323 14.94643 38194 ft 451 kts 317°
2026-04-26 15:42 45.13025 14.88754 38192 ft 452 kts 317°
2026-04-26 15:42 45.17733 14.82845 38190 ft 451 kts 317°
2026-04-26 15:43 45.22415 14.76917 38189 ft 451 kts 316°
2026-04-26 15:44 45.29442 14.67998 38185 ft 452 kts 316°
2026-04-26 15:44 45.36470 14.59089 38189 ft 452 kts 316°
2026-04-26 15:45 45.43475 14.50184 38191 ft 452 kts 316°
2026-04-26 15:46 45.50482 14.41247 38189 ft 450 kts 316°
2026-04-26 15:46 45.54384 14.36256 38193 ft 450 kts 316°
2026-04-26 15:47 45.62109 14.26345 38194 ft 449 kts 316°
2026-04-26 15:48 45.66753 14.20369 38188 ft 449 kts 316°
2026-04-26 15:48 45.71409 14.14363 38197 ft 451 kts 316°
2026-04-26 15:49 45.76063 14.08345 38195 ft 451 kts 316°
2026-04-26 15:49 45.80708 14.02325 38192 ft 450 kts 315°
2026-04-26 15:50 45.85336 13.96263 38195 ft 451 kts 315°
2026-04-26 15:50 45.89967 13.90193 38202 ft 451 kts 315°
2026-04-26 15:51 45.94602 13.84131 38196 ft 451 kts 315°
2026-04-26 15:51 45.99244 13.78055 38201 ft 451 kts 315°
2026-04-26 15:52 46.03874 13.71980 38195 ft 451 kts 315°
2026-04-26 15:52 46.08503 13.65892 38194 ft 451 kts 315°
2026-04-26 15:53 46.13128 13.59793 38189 ft 451 kts 315°
2026-04-26 15:53 46.17752 13.53681 38205 ft 451 kts 315°
2026-04-26 15:54 46.22364 13.47572 38179 ft 450 kts 315°
2026-04-26 15:54 46.26969 13.41457 38195 ft 450 kts 315°
2026-04-26 15:55 46.31575 13.35325 38195 ft 450 kts 315°
2026-04-26 15:55 46.36178 13.29183 38190 ft 450 kts 315°
2026-04-26 15:56 46.40779 13.23029 38197 ft 450 kts 315°
2026-04-26 15:56 46.45367 13.16841 38203 ft 450 kts 315°
2026-04-26 15:57 46.49173 13.11681 38208 ft 451 kts 315°
2026-04-26 15:57 46.53760 13.05478 38201 ft 451 kts 315°
2026-04-26 15:58 46.58347 12.99277 38186 ft 450 kts 315°
2026-04-26 15:58 46.62930 12.93072 38204 ft 450 kts 315°
2026-04-26 15:59 46.67514 12.86848 38197 ft 451 kts 315°
2026-04-26 15:59 46.72093 12.80616 38194 ft 451 kts 315°
2026-04-26 16:00 46.76667 12.74376 38205 ft 450 kts 315°
2026-04-26 16:00 46.81235 12.68128 38211 ft 450 kts 315°
2026-04-26 16:01 46.85794 12.61878 38226 ft 450 kts 315°
2026-04-26 16:01 46.90351 12.55614 38239 ft 450 kts 314°
2026-04-26 16:02 46.94908 12.49336 38234 ft 449 kts 314°
2026-04-26 16:02 46.99453 12.43059 38240 ft 450 kts 314°
2026-04-26 16:03 47.03996 12.36758 38240 ft 449 kts 314°
2026-04-26 16:03 47.08515 12.30421 38245 ft 449 kts 314°
2026-04-26 16:04 47.13034 12.24097 38241 ft 449 kts 314°
2026-04-26 16:04 47.17561 12.17770 38254 ft 449 kts 314°
2026-04-26 16:05 47.22075 12.11452 38256 ft 448 kts 314°
2026-04-26 16:05 47.26582 12.05128 38262 ft 448 kts 314°
2026-04-26 16:06 47.31093 11.98782 38258 ft 448 kts 314°
2026-04-26 16:06 47.35598 11.92428 38261 ft 448 kts 314°
2026-04-26 16:07 47.40126 11.86027 38276 ft 448 kts 314°
2026-04-26 16:07 47.44594 11.79695 38258 ft 448 kts 314°
2026-04-26 16:08 47.49081 11.73318 38257 ft 448 kts 314°
2026-04-26 16:08 47.53559 11.66940 38255 ft 447 kts 314°
2026-04-26 16:09 47.58038 11.60544 38269 ft 447 kts 314°
2026-04-26 16:09 47.62506 11.54147 38269 ft 447 kts 314°
2026-04-26 16:10 47.66946 11.47716 38278 ft 446 kts 313°
2026-04-26 16:10 47.71384 11.41276 38274 ft 446 kts 313°
2026-04-26 16:11 47.75826 11.34845 38280 ft 446 kts 314°
2026-04-26 16:11 47.80271 11.28405 38290 ft 446 kts 314°
2026-04-26 16:12 47.84704 11.21968 38305 ft 445 kts 314°
2026-04-26 16:12 47.91354 11.12281 38317 ft 445 kts 314°
2026-04-26 16:13 47.95770 11.05828 38316 ft 444 kts 314°
2026-04-26 16:13 48.00179 10.99368 38319 ft 444 kts 314°
2026-04-26 16:14 48.04584 10.92897 38321 ft 444 kts 314°
2026-04-26 16:15 48.11186 10.83170 38322 ft 444 kts 314°
2026-04-26 16:15 48.15589 10.76663 38334 ft 444 kts 313°
2026-04-26 16:16 48.22181 10.66888 38321 ft 444 kts 313°
2026-04-26 16:16 48.26518 10.60349 38322 ft 444 kts 313°
2026-04-26 16:17 48.30873 10.53764 38322 ft 444 kts 313°
2026-04-26 16:17 48.35235 10.47184 38325 ft 444 kts 313°
2026-04-26 16:18 48.41744 10.37355 38321 ft 444 kts 313°
2026-04-26 16:19 48.48277 10.27453 38331 ft 444 kts 313°
2026-04-26 16:20 48.54796 10.17535 38329 ft 444 kts 313°
2026-04-26 16:20 48.61305 10.07591 38316 ft 444 kts 313°
2026-04-26 16:21 48.65644 10.00941 38328 ft 444 kts 313°
2026-04-26 16:21 48.69989 9.94264 38315 ft 445 kts 313°
2026-04-26 16:22 48.74307 9.87530 38312 ft 445 kts 312°
2026-04-26 16:22 48.78586 9.80744 38318 ft 445 kts 312°
2026-04-26 16:23 48.82870 9.73955 38323 ft 445 kts 312°
2026-04-26 16:23 48.87157 9.67164 38329 ft 445 kts 312°
2026-04-26 16:24 48.91443 9.60363 38338 ft 445 kts 313°
2026-04-26 16:24 48.95717 9.53562 38334 ft 444 kts 312°
2026-04-26 16:25 48.99984 9.46755 38330 ft 444 kts 312°
2026-04-26 16:25 49.04246 9.39937 38328 ft 444 kts 312°
2026-04-26 16:26 49.07788 9.34258 38321 ft 444 kts 312°
2026-04-26 16:26 49.12737 9.26300 38321 ft 444 kts 312°
2026-04-26 16:27 49.16986 9.19449 38327 ft 444 kts 312°
2026-04-26 16:27 49.21238 9.12574 38323 ft 444 kts 312°
2026-04-26 16:28 49.25480 9.05697 38320 ft 444 kts 312°
2026-04-26 16:28 49.29711 8.98795 38324 ft 444 kts 311°
2026-04-26 16:29 49.33880 8.91789 38320 ft 444 kts 311°
2026-04-26 16:29 49.38122 8.84904 38323 ft 445 kts 317°
2026-04-26 16:30 49.43396 8.79902 38327 ft 451 kts 337°
2026-04-26 16:30 49.49473 8.77313 38324 ft 455 kts 345°
2026-04-26 16:31 49.55640 8.75078 38325 ft 456 kts 343°
2026-04-26 16:31 49.61748 8.72578 37328 ft 453 kts 342°
2026-04-26 16:32 49.64786 8.71260 36159 ft 455 kts 342°
2026-04-26 16:32 49.66501 8.70505 35514 ft 455 kts 342°
2026-04-26 16:32 49.70599 8.68687 33945 ft 457 kts 342°
2026-04-26 16:32 49.73657 8.67326 32613 ft 459 kts 342°
2026-04-26 16:33 49.76736 8.65957 31259 ft 462 kts 342°
2026-04-26 16:33 49.79832 8.64581 29830 ft 464 kts 342°
2026-04-26 16:33 49.82945 8.63198 28165 ft 468 kts 342°
2026-04-26 16:33 49.86080 8.61804 26771 ft 468 kts 342°
2026-04-26 16:34 49.88155 8.60881 26064 ft 464 kts 342°
2026-04-26 16:34 49.91824 8.59248 24856 ft 458 kts 342°
2026-04-26 16:34 49.94713 8.57962 23939 ft 454 kts 342°
2026-04-26 16:34 49.97731 8.56616 22844 ft 449 kts 342°
2026-04-26 16:35 50.00712 8.55283 21831 ft 442 kts 342°
2026-04-26 16:35 50.03658 8.53963 20842 ft 436 kts 342°
2026-04-26 16:35 50.06530 8.52572 19886 ft 430 kts 340°
2026-04-26 16:35 50.09347 8.51094 18979 ft 425 kts 339°
2026-04-26 16:36 50.12130 8.49587 18032 ft 420 kts 339°
2026-04-26 16:36 50.14868 8.48093 17072 ft 414 kts 339°
2026-04-26 16:36 50.17564 8.46623 16176 ft 409 kts 339°
2026-04-26 16:36 50.20237 8.45169 15294 ft 404 kts 339°
2026-04-26 16:37 50.22023 8.44199 14725 ft 401 kts 339°
2026-04-26 16:37 50.24616 8.42794 13877 ft 397 kts 339°
2026-04-26 16:37 50.27211 8.41387 13018 ft 391 kts 339°
2026-04-26 16:37 50.29684 8.39715 12145 ft 384 kts 331°
2026-04-26 16:38 50.31986 8.37651 11352 ft 379 kts 327°
2026-04-26 16:38 50.34194 8.35459 10592 ft 373 kts 326°
2026-04-26 16:38 50.36348 8.33261 10134 ft 360 kts 326°
2026-04-26 16:38 50.38384 8.31182 9988 ft 339 kts 326°
2026-04-26 16:39 50.40310 8.29228 9846 ft 322 kts 327°
2026-04-26 16:39 50.42142 8.27375 9701 ft 306 kts 327°
2026-04-26 16:39 50.43893 8.25610 9561 ft 291 kts 327°
2026-04-26 16:39 50.45560 8.23934 9417 ft 279 kts 327°
2026-04-26 16:40 50.47156 8.22330 9216 ft 268 kts 327°
2026-04-26 16:40 50.48719 8.20760 8826 ft 266 kts 327°
2026-04-26 16:40 50.50278 8.19194 8432 ft 265 kts 327°
2026-04-26 16:40 50.51827 8.17636 8020 ft 264 kts 327°
2026-04-26 16:41 50.53370 8.16085 7603 ft 262 kts 327°
2026-04-26 16:41 50.54900 8.14544 7239 ft 260 kts 327°
2026-04-26 16:41 50.56414 8.13020 6878 ft 258 kts 327°
2026-04-26 16:41 50.57925 8.11496 6516 ft 258 kts 327°
2026-04-26 16:42 50.59431 8.09977 6121 ft 257 kts 327°
2026-04-26 16:42 50.60939 8.08455 5740 ft 256 kts 327°
2026-04-26 16:42 50.62435 8.06944 5365 ft 255 kts 327°
2026-04-26 16:42 50.63926 8.05435 4966 ft 255 kts 327°
2026-04-26 16:43 50.65416 8.03928 4579 ft 254 kts 327°
2026-04-26 16:43 50.66900 8.02425 4201 ft 253 kts 327°
2026-04-26 16:43 50.68349 8.00958 3831 ft 241 kts 328°
2026-04-26 16:43 50.69698 7.99589 3438 ft 227 kts 328°
2026-04-26 16:44 50.71008 7.98261 3051 ft 215 kts 328°
2026-04-26 16:44 50.72188 7.97062 2928 ft 193 kts 328°
2026-04-26 16:44 50.73250 7.95932 2899 ft 171 kts 323°
2026-04-26 16:44 50.74101 7.94739 2949 ft 168 kts 314°
2026-04-26 16:45 50.74842 7.93229 3016 ft 177 kts 303°
2026-04-26 16:45 50.75374 7.91509 2934 ft 170 kts 290°
2026-04-26 16:45 50.75646 7.89745 2910 ft 163 kts 279°
2026-04-26 16:45 50.75820 7.87915 3032 ft 179 kts 279°
2026-04-26 16:46 50.76004 7.85914 3006 ft 188 kts 279°
2026-04-26 16:46 50.76187 7.83874 2963 ft 187 kts 279°
2026-04-26 16:46 50.76367 7.81850 2950 ft 186 kts 279°
2026-04-26 16:46 50.76546 7.79829 2953 ft 185 kts 279°
2026-04-26 16:47 50.76723 7.77811 2953 ft 186 kts 278°
2026-04-26 16:47 50.76899 7.75784 2959 ft 186 kts 278°
2026-04-26 16:47 50.77074 7.73760 2959 ft 186 kts 278°
2026-04-26 16:47 50.77248 7.71726 2954 ft 186 kts 279°
2026-04-26 16:48 50.77421 7.69706 2961 ft 186 kts 278°
2026-04-26 16:48 50.77594 7.67673 2952 ft 187 kts 279°
2026-04-26 16:48 50.77766 7.65654 2971 ft 187 kts 278°
2026-04-26 16:48 50.77937 7.63628 2956 ft 186 kts 279°
2026-04-26 16:49 50.78109 7.61603 2956 ft 186 kts 278°
2026-04-26 16:49 50.78138 7.59563 2941 ft 187 kts 259°
2026-04-26 16:49 50.77779 7.57598 2979 ft 188 kts 252°
2026-04-26 16:49 50.77365 7.55630 2962 ft 188 kts 252°
2026-04-26 16:50 50.76947 7.53671 2956 ft 189 kts 252°
2026-04-26 16:50 50.76524 7.51707 2963 ft 188 kts 252°
2026-04-26 16:50 50.76098 7.49755 2970 ft 188 kts 252°
2026-04-26 16:50 50.75670 7.47797 2976 ft 189 kts 253°
2026-04-26 16:51 50.75239 7.45836 2967 ft 188 kts 253°
2026-04-26 16:51 50.74808 7.43881 2977 ft 189 kts 252°
2026-04-26 16:51 50.74376 7.41922 2977 ft 189 kts 252°
2026-04-26 16:51 50.73942 7.39963 2979 ft 189 kts 252°
2026-04-26 16:52 50.73505 7.37998 2964 ft 189 kts 253°
2026-04-26 16:52 50.73289 7.36648 2967 ft 188 kts 265°
2026-04-26 16:52 50.73738 7.34154 2959 ft 179 kts 314°
2026-04-26 16:52 50.74603 7.32712 3040 ft 183 kts 314°
2026-04-26 16:53 50.75472 7.31232 2974 ft 183 kts 315°
2026-04-26 16:53 50.76364 7.29791 2789 ft 185 kts 317°
2026-04-26 16:53 50.77299 7.28407 2526 ft 183 kts 318°
2026-04-26 16:53 50.78227 7.27047 2275 ft 180 kts 318°
2026-04-26 16:54 50.79145 7.25711 2039 ft 179 kts 319°
2026-04-26 16:54 50.80057 7.24390 1818 ft 177 kts 319°
2026-04-26 16:54 50.80967 7.23077 1548 ft 177 kts 319°
2026-04-26 16:54 50.81857 7.21796 1312 ft 166 kts 318°
2026-04-26 16:55 50.82666 7.20636 1032 ft 148 kts 317°
2026-04-26 16:55 50.83432 7.19534 765 ft 161 kts 317°
2026-04-26 16:55 50.84226 7.18412 639 ft 144 kts 316°
2026-04-26 16:55 50.84963 7.17349 472 ft 144 kts 317°
2026-04-26 16:56 50.86379 7.15326 298 ft 117 kts 319°
2026-04-26 16:56 50.86903 7.14563 268 ft 87 kts 317°
2026-04-26 16:56 50.87292 7.14001 250 ft 70 kts 317°
2026-04-26 16:57 50.87630 7.13510 246 ft 57 kts 317°
2026-04-26 16:57 50.87805 7.13261 246 ft 22 kts 316°
2026-04-26 16:57 50.87819 7.12956 243 ft 11 kts 255°
2026-04-26 16:58 50.87811 7.12904 242 ft 0 kts 256°
2026-04-26 16:58 50.87806 7.12873 241 ft 6 kts 256°
2026-04-26 16:59 50.87791 7.12784 240 ft 10 kts 250°
2026-04-26 16:59 50.87697 7.12800 240 ft 9 kts 138°
2026-04-26 17:00 50.87583 7.12968 240 ft 13 kts 137°
2026-04-26 17:00 50.87424 7.13198 240 ft 18 kts 137°
2026-04-26 17:00 50.87329 7.13337 239 ft 20 kts 137°
2026-04-26 17:01 50.87226 7.13485 242 ft 20 kts 137°
2026-04-26 17:01 50.87125 7.13632 246 ft 20 kts 137°
2026-04-26 17:01 50.87069 7.13712 248 ft 3 kts 138°
2026-04-26 17:01 50.87054 7.13734 249 ft 3 kts 138°
2026-04-26 17:02 50.87046 7.13745 249 ft 1 kts 138°
2026-04-26 17:02 50.87041 7.13752 249 ft 1 kts 138°
2026-04-26 17:02 50.87036 7.13759 250 ft 0 kts 138°
2026-04-26 17:02 50.87034 7.13761 250 ft 0 kts 139°
2026-04-26 17:03 50.87027 7.13763 250 ft 2 kts 165°
2026-04-26 17:03 50.87007 7.13744 250 ft 5 kts 217°
2026-04-26 17:03 50.86985 7.13711 250 ft 4 kts 221°
2026-04-26 17:03 50.86965 7.13676 250 ft 5 kts 228°
2026-04-26 17:04 50.86959 7.13666 250 ft 0 kts 228°